Change the Weather History Date:

Monday, October 8, 2012

  Actual Average Record
Temperature  
Mean Temperature 56 °F -  
Max Temperature 71 °F 56 °F 71 °F (2012)
Min Temperature 41 °F 40 °F 37 °F (2008)
Degree Days  
Heating Degree Days 9    
Growing Degree Days 6 (Base 50)    
Moisture  
Dew Point 45 °F    
Average Humidity 69    
Maximum Humidity 93    
Minimum Humidity 34    
Precipitation  
Precipitation 0.00 in 0.23 in - ()
Sea Level Pressure  
Sea Level Pressure 29.96 in    
Wind  
Wind Speed 2 mph ()    
Max Wind Speed 9 mph    
Max Gust Speed -    
Visibility 15.0 miles    
Events Fog    
Averages and records for this station are not official NWS values.
T = Trace of Precipitation, MM = Missing Value Source: Averaged Metar Reports

Daily Weather History Graph

Daily Weather History Graph

Search for Another Location

Airport or City:

Trip Planner

Search our weather history database for the weather conditions in past years. The results will help you decide how hot, cold, wet, or windy it might be!

Date:

Astronomy

Oct. 08, 2012 Rise Set
Actual Time 7:20 AM PDT 6:32 PM PDT
Civil Twilight 6:48 AM PDT 7:04 PM PDT
Nautical Twilight 6:12 AM PDT 7:40 PM PDT
Astronomical Twilight 5:35 AM PDT 8:17 PM PDT
Moon No Moon Rise 2:56 PM PDT (10/8)
Length of Visible Light 12h 15m
Length of Day
11h 12m
Last Quarter, 45% of the Moon is Illuminated
Oct 8
Last Quarter
Oct 15
New
Oct 21
First Quarter
Oct 29
Full
Nov 6
Last Quarter

Hourly Weather History & Observations

Time (PDT) Temp. Windchill Dew Point Humidity Pressure Visibility Wind Dir Wind Speed Gust Speed Precip Events Conditions
12:00 AM 48.2 °F - 42.8 °F 82% 29.95 in 15.0 mi Calm Calm - N/A   Scattered Clouds
1:00 AM 44.6 °F - 41.0 °F 87% 29.96 in 15.0 mi Calm Calm - N/A   Partly Cloudy
2:00 AM 46.4 °F 44.3 °F 42.8 °F 87% 29.95 in 15.0 mi North 4.6 mph - N/A   Partly Cloudy
3:00 AM 44.6 °F - 41.0 °F 87% 29.95 in 15.0 mi Calm Calm - N/A   Clear
4:00 AM 44.6 °F - 41.0 °F 87% 29.95 in 15.0 mi Calm Calm - N/A   Clear
5:00 AM 45 °F - 42 °F 85% 29.96 in 15 mi North 3.5 mph - -  
5:00 AM 44.6 °F 43.1 °F 41.0 °F 87% 29.95 in 15.0 mi North 3.5 mph - N/A   Clear
6:00 AM 42.8 °F - 41.0 °F 93% 29.95 in 15.0 mi Variable 2.3 mph - N/A   Clear
7:00 AM 44.6 °F 43.1 °F 42.8 °F 93% 29.96 in 30.0 mi ENE 3.5 mph - N/A Fog Shallow Fog
8:00 AM 42.8 °F - 39.2 °F 87% 29.96 in 30.0 mi Calm Calm - N/A Fog Shallow Fog
9:00 AM 51.8 °F - 46.4 °F 82% 29.97 in 30.0 mi Calm Calm - N/A   Partly Cloudy
10:00 AM 57.2 °F - 46.4 °F 67% 29.98 in 30.0 mi Calm Calm - N/A   Scattered Clouds
11:00 AM 62 °F - 46 °F 45% 29.98 in 28 mi Calm Calm - -   Clear
11:00 AM 60.8 °F - 46.4 °F 59% 29.97 in 30.0 mi Calm Calm - N/A   Scattered Clouds
12:00 PM 64.4 °F - 46.4 °F 52% 29.97 in 30.0 mi South 3.5 mph - N/A   Partly Cloudy
1:00 PM 66.2 °F - 46.4 °F 49% 29.96 in 30.0 mi Calm Calm - N/A   Scattered Clouds
2:00 PM 68.0 °F - 46.4 °F 46% 29.95 in 30.0 mi WSW 3.5 mph - N/A   Partly Cloudy
3:00 PM 71.6 °F - 46.4 °F 41% 29.94 in 30.0 mi SSW 8.1 mph - N/A   Partly Cloudy
4:00 PM 71.6 °F - 50.0 °F 46% 29.94 in 30.0 mi SW 9.2 mph - N/A   Partly Cloudy
5:00 PM 69 °F - 47 °F 34% 29.94 in 28 mi SW 9.2 mph - -   Clear
5:00 PM 69.8 °F - 46.4 °F 43% 29.94 in 30.0 mi SSW 9.2 mph - N/A   Partly Cloudy
6:00 PM 64.4 °F - 46.4 °F 52% 29.94 in 30.0 mi SSW 6.9 mph - N/A   Partly Cloudy
7:00 PM 59.0 °F - 46.4 °F 63% 29.95 in 30.0 mi SW 4.6 mph - N/A   Partly Cloudy
8:00 PM 55.4 °F - 46.4 °F 72% 29.96 in 15.0 mi Calm Calm - N/A   Partly Cloudy
9:00 PM 53.6 °F - 44.6 °F 72% 29.97 in 15.0 mi North 3.5 mph - N/A   Clear
10:00 PM 51.8 °F - 46.4 °F 82% 29.99 in 15.0 mi WNW 2.3 mph - N/A   Clear
11:00 PM 50.0 °F - 44.6 °F 82% 30.01 in 15.0 mi North 2.3 mph - N/A   Clear